Flag for Germany Weather past 2 weeks in Ansbach, Bavaria, Germany

Now
71 °F

Clear.


Feels Like: 76 °F
Forecast: 68 / 92 °F
Wind: 6 mph from South

Location: Ansbach / Katterbach

Current Time: Jul 3, 2015 at 2:17:49 AM

Latest Report: Jul 3, 2015 at 1:58 AM


Visibility: N/A

Pressure: 30.19 "Hg

Humidity: 58%

Dew point: 56 °F

Location of AnsbachLocation

Historic Weather in Ansbach — Graph

°F

Ansbach temperature yesterday

Maximum temperature yesterday: 88 °F (at 4:58 PM)
Minimum temperature yesterday: 64 °F (at 3:58 AM)
Average temperature yesterday: 78 °F

Past Weeks' High & Low Weather Summary

 TemperatureHumidityPressure
High88 °F (Jul 2, 4:58 PM)100% (Jun 18, 9:58 AM)30.27 "Hg (Jun 18, 9:58 AM)
Low46 °F (Jun 20, 11:58 PM)27% (Jun 30, 5:58 PM)29.75 "Hg (Jun 23, 12:58 AM)
Average62 °F75%30.11 "Hg
* Reported Jun 18 12:58 AM — Jul 3 12:58 AM, Ansbach, Weather by CustomWeather, © 2015

Note: Actual official high and low records may vary slightly from our data, if they occured in-between our weather recording intervals... More about our weather records

Advertising

Ansbach weather history for previous 24 hours

 ConditionsComfort  
Time TempWeatherWind HumidityBarometerVisibility
12:58 AM
Fri, Jul 3
72 °FClear.6 mph57%30.19 "HgN/A
11:58 PM
Thu, Jul 2
75 °FClear.5 mph50%30.19 "HgN/A
10:58 PM76 °FClear.3 mph47%30.19 "HgN/A
9:58 PM79 °FSunny.6 mph45%30.19 "HgN/A
8:58 PM82 °FSunny.6 mph40%30.16 "HgN/A
7:58 PM85 °FSunny.7 mph38%30.16 "HgN/A
6:58 PM87 °FSunny.6 mph36%30.16 "HgN/A
5:58 PM88 °FSunny.7 mph36%30.15 "HgN/A
4:58 PM88 °FSunny.6 mph38%30.15 "HgN/A
3:58 PM88 °FSunny.6 mph38%30.16 "HgN/A
2:58 PM86 °FSunny.6 mph38%30.16 "HgN/A
1:58 PM86 °FSunny.7 mph40%30.16 "HgN/A
12:58 PM84 °FSunny.8 mph45%30.16 "HgN/A
11:58 AM83 °FSunny.9 mph48%30.18 "HgN/A
10:58 AM81 °FSunny.6 mph51%30.18 "HgN/A
9:58 AM79 °FSunny.8 mph54%30.18 "HgN/A
8:58 AM75 °FSunny.2 mph61%30.19 "HgN/A
7:58 AM71 °FSunny.5 mph69%30.18 "HgN/A
6:58 AM68 °FSunny.2 mph78%30.16 "HgN/A
5:58 AM65 °FOvercast.5 mph79%30.17 "HgN/A
4:58 AM65 °FPassing clouds.5 mph81%30.16 "HgN/A
3:58 AM64 °FPassing clouds.No wind83%30.16 "HgN/A
2:58 AM68 °FClear.2 mph69%30.15 "HgN/A
Weather by CustomWeather, © 2015

See weather overviewHow to use our weather pages